Location: Gombio
(44.5000°N, 10.4333°E)
Time: 06:20:50
(UTC+00:00)

Daily predictions for brighter satellites

Satellite Brightness Start Highest point End
(mag) Time Altitude Azimuth Time Altitude Azimuth Time Altitude Azimuth
Okean O Rocket 1.7 16:34:35 10° SSE 16:38:56 58° ENE 16:43:18 10° N
CZ-4B R/B 2.7 16:37:43 10° NE 16:40:23 21° E 16:43:00 10° SSE
YAOGAN 6 3.8 16:37:23 10° S 16:40:50 48° W 16:44:19 10° NNW
SMAP 3.1 16:36:17 10° SSE 16:40:55 82° ENE 16:45:36 10° NNW
Cosmos 1626 2.2 16:37:58 10° S 16:41:39 86° W 16:45:22 10° N
SeaSat 1 4.3 16:38:14 10° N 16:42:13 25° NW 16:46:12 10° WSW
Cosmos 773 Rocket 4.1 16:37:19 10° NNW 16:42:21 50° ENE 16:47:19 10° SE
CZ-4B R/B 3.2 16:37:26 10° SSE 16:42:57 78° ENE 16:48:35 10° NNW
SL-24 R/B 4.1 16:39:15 10° SSE 16:43:32 74° ENE 16:48:08 10° N
Aureole 2 Rocket 4.1 16:44:57 10° SE 16:46:20 13° E 16:47:43 10° ENE
AQUARIUS 4.2 16:43:22 10° SSE 16:47:52 84° ENE 16:52:23 10° NNW
Cosmos 1603 3.9 16:45:46 10° NNW 16:51:30 82° WSW 16:57:14 10° SSE
Meteor 2-10 Rocket 4.2 16:47:06 10° N 16:52:10 35° ENE 16:57:00 10° SE
CZ-2D R/B 4.0 16:52:21 10° SE 16:55:45 30° ENE 16:59:10 10° N
Cosmos 1606 Rocket 3.5 16:53:06 10° N 16:57:29 64° E 17:01:51 10° SSE
YAOGAN 1 3.8 16:55:22 10° ESE 16:58:31 20° ENE 17:01:41 10° NNE
Cosmos 1892 Rocket 4.0 16:54:37 10° SSE 16:58:40 40° E 17:02:45 10° NNE
USA 234 4.3 16:53:19 10° ENE 16:58:49 30° N 17:04:19 10° NW
H-2A R/B 2.2 16:54:31 10° NNE 16:59:00 83° WNW 17:03:22 10° SSW
TELKOM 3 4.0 16:57:10 10° SSW 16:59:17 31° SE 17:01:04 14° E
FengYun 1-2 T 4.3 16:54:57 10° SSE 17:00:30 89° ENE 17:06:09 10° NNW
ATLAS 5 CENTAUR R/B 2.1 16:56:52 10° SW 17:00:46 52° NW 17:05:11 10° NNE
CZ-4C R/B 4.4 16:59:54 10° N 17:02:48 35° WNW 17:05:43 10° SW
SL-14 R/B 3.8 17:00:20 10° SSW 17:04:09 63° W 17:08:02 10° N
Helios 1A Rocket 4.3 17:01:35 10° ESE 17:04:24 18° ENE 17:07:14 10° NNE
RESURS DK-1 4.0 17:02:22 10° WSW 17:06:06 32° NW 17:09:51 10° N
MOS 1 Rocket 3.7 17:04:27 10° NNE 17:08:25 34° E 17:12:19 10° SSE
ATLAS 3B R/B 3.8 17:02:39 10° NW 17:09:24 52° WSW 17:16:23 10° SSE
Cosmos 2228 3.0 17:05:11 10° N 17:09:27 85° W 17:13:45 10° S
BREEZE-M DEB (TANK) 4.1 17:08:20 10° W 17:10:48 25° SSW 17:13:45 10° SSE
Cosmos 2142 Rocket 4.5 17:05:24 10° N 17:11:36 90° NE 17:17:44 10° S
Meteor 2-5 Rocket 4.1 17:07:30 10° SSW 17:13:02 67° WNW 17:18:34 10° N
SKYMED 2 3.7 17:10:07 10° NNE 17:14:24 54° E 17:18:38 10° S
CZ-4C R/B 3.8 17:10:16 10° W 17:14:43 27° NNW 17:19:55 10° NNE
SJ 16-02 2.2 17:12:12 10° SSE 17:15:59 29° E 17:18:57 15° NE
Cosmos 1538 Rocket 4.0 17:10:58 10° NNW 17:16:05 56° ENE 17:21:08 10° SE
Aureole 3 4.1 17:13:27 10° NNE 17:16:12 21° ENE 17:18:41 10° ESE
Nadezhda 4 Rocket 4.3 17:11:26 10° SSE 17:17:18 44° E 17:23:07 10° NNE
CZ-3B R/B 2.8 17:15:14 10° NNW 17:17:29 26° NE 17:20:09 16° E
Cosmos 1777 Rocket 4.0 17:13:58 10° SSW 17:19:13 80° ESE 17:24:31 10° NNE
YAOGAN 3 4.5 17:16:57 10° SSE 17:21:17 76° ENE 17:25:39 10° N
Cosmos 2263 Rocket 3.2 17:15:53 10° SW 17:21:20 46° WNW 17:26:49 10° NNE
Cosmos 1455 2.8 17:23:26 10° N 17:26:55 33° ENE 17:30:25 10° SE
Cosmos 2058 Rocket 3.0 17:24:27 10° N 17:28:56 68° E 17:33:25 10° SSE
Cosmos 1300 4.3 17:27:31 10° NNW 17:31:05 38° W 17:34:37 10° SSW
Cosmos 1703 4.4 17:28:50 10° SE 17:31:37 23° E 17:31:37 23° E
X-37B 1.7 17:29:16 10° SW 17:32:10 33° SSE 17:33:14 25° ESE
Meteor 2-13 Rocket 4.5 17:29:46 10° S 17:35:43 58° E 17:41:44 10° NNE
ARGOS 3.7 17:31:56 10° SE 17:36:45 35° ENE 17:41:36 10° N
Cosmos 44 4.4 17:36:06 10° SSE 17:39:50 24° ESE 17:40:18 23° ESE
Okean 1-7 Rocket 3.5 17:35:39 10° S 17:40:09 76° E 17:44:44 10° NNE
CREW DRAGON DEMO-1 DEB 3.9 17:39:21 10° NW 17:41:52 28° NNE 17:41:52 28° NNE
Lacrosse 5 2.0 17:37:17 10° NW 17:42:15 55° NE 17:45:00 25° ESE
Cosmos 1939 Rocket 4.0 17:39:56 10° S 17:43:55 48° W 17:47:55 10° NNW
ISS -3.6 17:40:54 10° SW 17:44:13 58° SE 17:45:00 43° E
Cosmos 1726 Rocket 4.5 17:40:10 10° NNW 17:44:24 50° W 17:48:38 10° S
ERS-2 1.9 17:42:03 15° NNE 17:45:02 74° ESE 17:48:39 10° S
CSL-04 Debris 4.4 17:41:44 10° SE 17:46:48 44° ENE 17:51:53 10° N
CZ-2C R/B 3.5 17:45:49 27° ENE 17:46:49 28° E 17:51:34 10° SSE
PSLV R/B 3.9 17:43:31 12° NNE 17:47:26 64° ESE 17:51:36 10° S
EXPRESS MD2 4.0 17:39:53 10° WNW 17:47:57 86° SSW 17:50:21 26° ESE
COSMOS 2455 3.0 17:42:39 10° SW 17:48:41 78° WNW 17:54:02 14° NNE
Cosmos 1626 Rocket 3.6 17:47:10 10° S 17:51:24 51° E 17:54:01 22° NNE
Cosmos 1844 3.7 17:48:00 10° S 17:53:32 61° ESE 17:57:10 22° NE
Cosmos 2026 Rocket 4.3 17:48:49 10° SSE 17:54:25 40° E 18:00:06 10° NNE
IRS-1C Rocket 4.2 17:49:23 10° S 17:54:39 76° WSW 17:59:55 10° NNW
Cosmos 990 Rocket 4.4 17:50:33 10° SSE 17:55:19 38° ESE 17:56:17 35° ENE
Cosmos 1833 Rocket 4.1 17:51:37 10° N 17:54:41 19° NNE 17:54:41 19° NNE
CZ-4 R/B 1.3 17:52:03 10° SSE 17:56:10 89° ENE 18:00:14 10° NNW
Cosmos 2082 Rocket 4.2 17:54:37 10° NNE 17:55:55 12° NNE 17:55:55 12° NNE
NOAA 15 4.5 17:52:13 10° SSE 17:57:27 79° ENE 18:02:44 10° NNW
USA 229 DEB 4.5 17:52:59 10° NNW 17:59:33 36° NE 18:01:48 30° ENE
COSMO-SKYMED 1 3.6 17:58:18 10° N 18:02:28 46° WNW 18:06:37 10° SW
DMSP B5D1-3 4.4 18:01:30 15° NNE 18:05:42 65° ESE 18:10:45 10° S
USA 267 3.8 18:04:12 32° E 18:06:09 38° SE 18:12:07 10° SSW
Okean-O 2.8 18:07:53 10° S 18:12:17 71° WSW 18:16:44 10° NNW
CZ-4B R/B 3.8 18:09:50 10° NNW 18:12:31 22° WNW 18:15:07 10° WSW
CZ-2C R/B 4.0 18:08:46 10° S 18:13:50 50° W 18:19:14 10° NNW
Cosmos 1844 Rocket 2.8 18:09:54 10° SSW 18:15:34 75° WNW 18:19:24 21° NNE
H-2A R/B 2.0 18:11:16 10° S 18:16:13 78° WSW 18:21:20 10° NNW
Cosmos 923 Rocket 3.9 18:12:26 10° NNW 18:17:49 85° ENE 18:23:07 10° SSE
Meteor 1-21 Rocket 4.2 18:12:27 10° SSW 18:17:58 82° W 18:23:33 10° N
Aureole 2 Rocket 3.8 18:16:16 10° SW 18:18:59 30° WNW 18:19:29 28° NW
Cosmos 1689 Rocket 3.5 18:20:01 36° WSW 18:20:01 36° WSW 18:22:07 10° SW
Cosmos 2195 Rocket 4.4 18:13:38 10° S 18:19:56 74° E 18:26:16 10° NNE
Cosmos 158 Rocket 4.1 18:17:51 10° NNW 18:23:12 80° WSW 18:28:35 10° SSE
Meteor 2-8 Rocket 4.3 18:17:29 10° N 18:23:35 72° E 18:29:40 10° SSE
Cosmos 1898 Rocket 3.5 18:18:38 10° S 18:23:42 58° ESE 18:23:42 58° ESE
Cosmos 2278 Rocket 4.3 18:20:07 10° SSE 18:20:26 11° SSE 18:20:26 11° SSE
Cosmos 1680 Rocket 3.3 18:19:57 10° NNW 18:25:13 76° ENE 18:26:36 49° SE
Cosmos 1627 Rocket 4.3 18:23:39 10° S 18:29:48 78° E 18:36:04 10° N
Cosmos 2098 Rocket 4.2 18:24:10 10° S 18:31:04 65° E 18:38:26 10° NNE
Cosmos 1602 Rocket 3.5 18:27:08 10° S 18:31:27 80° W 18:31:34 79° NW
Cosmos 1818 4.0 18:27:27 10° SW 18:32:47 58° NW 18:34:52 36° N
YAOGAN 1 3.8 18:30:14 10° S 18:34:20 42° W 18:38:27 10° NNW
Cosmos 1428 Rocket 4.3 18:28:32 10° S 18:34:48 79° E 18:41:08 10° N
CSL-04 Rocket 3.7 18:32:39 10° S 18:38:02 76° WSW 18:43:32 10° NNW
Helios 1A Rocket 4.0 18:35:16 10° S 18:39:13 44° W 18:43:13 10° NNW
USA 234 3.6 18:40:20 43° NE 18:40:52 44° NNE 18:47:00 10° NW
Cosmos 1092 Rocket 4.2 18:38:49 10° SSW 18:44:59 67° W 18:51:08 10° N
ATLAS 5 CENTAUR R/B 4.1 18:44:31 10° NW 18:46:36 13° NNW 18:47:37 12° N
Iridium 4 Rocket 3.8 18:41:42 10° N 18:47:23 69° W 18:52:36 10° S
SJ 16-02 3.2 18:50:41 10° WSW 18:54:31 28° WNW 18:55:59 23° NNW
Cosmos 2344 4.3 18:45:53 10° NW 18:55:12 71° NE 18:59:35 45° ESE
Cosmos 2112 Rocket 4.4 18:57:27 10° NNW 19:02:19 60° W 19:02:19 60° W
X-37B 4.2 19:05:26 10° W 19:05:31 11° W 19:05:31 11° W
Lacrosse 5 3.5 19:20:36 10° WNW 19:24:15 30° WSW 19:24:15 30° WSW
CZ-2C R/B 3.7 19:27:19 44° WNW 19:27:19 44° WNW 19:32:30 10° SW
NOSS 3-1 (C) 4.2 19:26:34 10° NW 19:34:09 70° WSW 19:34:39 69° SW
USA 267 4.1 19:51:34 44° WSW 19:51:34 44° WSW 19:55:55 10° WSW
USA 229 DEB 4.4 19:43:46 10° NW 19:49:18 54° WNW 19:49:18 54° WNW
USA 229 4.4 19:43:52 10° NW 19:49:21 53° WNW 19:49:21 53° WNW
